Regional Weather Roundup
Issued by NWS

Home | Current Version | Previous Version | Text Only | Print | Product List | Glossary On
Versions: 1 2 3 4 5 6 7 8 9 10 11 12 13 14 15 16 17 18 19 20 21 22 23 24 25 26 27 28 29 30 31 32 33 34 35 36 37 38 39 40 41 42 43 44 45 46 47 48 49 50
000
ASUS43 KTOP 210508
RWRKS

WEATHER ROUNDUP FOR KANSAS
NATIONAL WEATHER SERVICE GOODLAND KS
1200 AM CDT FRI JUL 21 2017

NOTE:  "FAIR" INDICATES FEW OR NO CLOUDS BELOW 12,000 FEET WITH NO
SIGNIFICANT WEATHER AND/OR OBSTRUCTIONS TO VISIBILITY.

KSZ001>006-013>018-027>032-041>047-210600-
NORTHWEST KANSAS

CITY           SKY/WX    TMP DP  RH WIND       PRES   REMARKS
GOODLAND       CLEAR     78  65  63 S12       29.97S
HAYS           CLEAR     85  60  42 S14       29.91S
HILL CITY      CLEAR     84  59  42 S6        29.90R
RUSSELL        CLEAR     86  60  41 S14       29.90S
$$

KSZ061>065-074>080-084>089-210600-
SOUTHWEST KANSAS

CITY           SKY/WX    TMP DP  RH WIND       PRES   REMARKS
DODGE CITY     CLEAR     82  57  42 S13       29.97S
ELKHART          N/A     76  48  37 S9          N/A
GARDEN CITY    CLEAR     80  56  43 S10       29.97S
LIBERAL        CLEAR     77  58  51 S10       30.01R
PRATT          CLEAR     82  56  41 S12       29.96S
$$

KSZ066>073-081>083-090>101-210600-
SOUTHEAST KANSAS

CITY           SKY/WX    TMP DP  RH WIND       PRES   REMARKS
CHANUTE        CLEAR     83  72  69 S8        29.98S
COFFEYVILLE    CLEAR     81  73  76 S7        29.98S
HUTCHINSON     CLEAR     86  66  51 SE12      29.94S
MEDICINE LODGE   N/A     84  59  42 S12       29.94R
NEWTON         CLEAR     84  68  58 S14       29.97S
PARSONS        CLEAR     82  72  71 S5        29.99S
WICHITA INTL   CLEAR     86  70  58 S14       29.95S
WICHITA JABRA  CLEAR     85  69  58 S13       29.96S
WICHITA MCCONL CLEAR     87  69  54 S17       29.96S
WINFIELD       CLEAR     86  68  54 S13       29.98S
$$

KSZ007>012-019>026-033>040-048>060-102>105-210600-
NORTHEAST KANSAS

CITY           SKY/WX    TMP DP  RH WIND       PRES   REMARKS
CONCORDIA      PTCLDY    86  66  51 S15       29.90S
EMPORIA        CLEAR     83  72  69 S16       29.96S
LAWRENCE       CLEAR     85  75  72 S10       29.94S
MANHATTAN      CLEAR     87  72  60 S12G21    29.91S
MARYSVILLE     CLEAR     86  68  54 S13       29.92S
OLATHE IND     CLEAR     82  74  76 S9        29.97S
OLATHE EXE     CLEAR     81  75  82 S9        29.97S
SALINA         CLEAR     90  64  42 S17       29.91R
TOPEKA BILLARD CLEAR     85  75  72 S9        29.94S
TOPEKA FORBES  CLEAR     84  74  71 S8        29.95S
$$




USA.gov is the U.S. government's official web portal to all federal, state and local government web resources and services.